TimeEST,TemperatureF,Dew PointF,Humidity,Sea Level PressureIn,VisibilityMPH,Wind Direction,Wind SpeedMPH,Gust SpeedMPH,PrecipitationIn,Events,Conditions,WindDirDegrees,DateUTC
12:51 AM,19.9,6.1,55,29.54,10.0,West,16.1,29.9,0.00,,Overcast,270,2013-02-01 05:51:00
1:51 AM,19.9,7.0,57,29.57,10.0,West,12.7,23.0,N/A,,Overcast,270,2013-02-01 06:51:00
2:51 AM,19.9,3.0,48,29.58,10.0,West,15.0,32.2,N/A,,Overcast,270,2013-02-01 07:51:00
3:51 AM,19.0,3.0,50,29.59,10.0,WNW,15.0,31.1,N/A,,Overcast,290,2013-02-01 08:51:00
4:51 AM,18.0,5.0,57,29.62,10.0,West,10.4,24.2,N/A,,Overcast,280,2013-02-01 09:51:00
5:51 AM,12.0,8.1,84,29.66,7.0,NW,5.8,16.1,N/A,,Overcast,320,2013-02-01 10:51:00
6:01 AM,12.2,8.6,85,29.61,2.5,NW,9.2,-,0.00,Snow,Light Snow,310,2013-02-01 11:01:00
6:10 AM,12.2,8.6,85,29.62,3.0,NW,8.1,-,0.00,Snow,Light Snow,320,2013-02-01 11:10:00
6:32 AM,12.2,8.6,85,29.63,2.0,NNW,6.9,-,0.00,Snow,Light Snow,330,2013-02-01 11:32:00
6:39 AM,12.2,8.6,85,29.63,1.5,NNW,5.8,-,0.00,Snow,Light Snow,330,2013-02-01 11:39:00
6:49 AM,12.2,8.6,85,29.64,1.2,NW,5.8,-,0.00,Snow,Light Snow,320,2013-02-01 11:49:00
6:51 AM,12.0,8.1,84,29.70,1.2,NW,5.8,-,0.00,Snow,Light Snow,320,2013-02-01 11:51:00
6:59 AM,12.2,8.6,85,29.64,1.5,NNW,5.8,-,0.00,Snow,Light Snow,330,2013-02-01 11:59:00
7:15 AM,12.2,8.6,85,29.66,1.0,NNW,6.9,-,0.00,Snow,Light Snow,340,2013-02-01 12:15:00
7:24 AM,12.2,8.6,85,29.66,0.8,NNW,6.9,-,0.00,Snow,Light Snow,330,2013-02-01 12:24:00
7:38 AM,10.4,8.6,92,29.66,1.0,NW,9.2,-,0.00,Snow,Light Snow,320,2013-02-01 12:38:00
7:49 AM,12.2,8.6,85,29.67,1.2,NW,8.1,-,0.00,Snow,Light Snow,310,2013-02-01 12:49:00
7:51 AM,10.9,9.0,92,29.74,1.2,NW,10.4,-,0.00,Snow,Light Snow,310,2013-02-01 12:51:00
7:59 AM,12.2,8.6,85,29.68,1.0,NW,5.8,-,0.00,Snow,Light Snow,320,2013-02-01 12:59:00
8:04 AM,12.2,8.6,85,29.69,1.5,Variable,5.8,-,0.00,Snow,Light Snow,0,2013-02-01 13:04:00
8:13 AM,12.2,8.6,85,29.69,3.0,North,5.8,-,0.00,,Overcast,350,2013-02-01 13:13:00
8:42 AM,12.2,8.6,85,29.72,3.0,NNW,8.1,-,0.00,,Overcast,340,2013-02-01 13:42:00
8:51 AM,12.0,8.1,84,29.79,2.5,North,8.1,17.3,0.00,,Overcast,360,2013-02-01 13:51:00
8:59 AM,12.2,8.6,85,29.72,3.0,NW,4.6,-,N/A,,Overcast,320,2013-02-01 13:59:00
9:51 AM,14.0,9.0,80,29.81,6.0,NNW,6.9,-,0.00,,Haze,330,2013-02-01 14:51:00
10:02 AM,12.2,8.6,85,29.75,7.0,NNW,6.9,-,N/A,,Overcast,340,2013-02-01 15:02:00
10:13 AM,14.0,8.6,79,29.76,7.0,NNW,9.2,-,N/A,,Overcast,340,2013-02-01 15:13:00
10:51 AM,14.0,8.1,77,29.84,9.0,NW,9.2,-,N/A,,Overcast,320,2013-02-01 15:51:00
11:11 AM,14.0,8.6,79,29.78,3.0,WNW,9.2,-,0.00,Snow,Light Snow,300,2013-02-01 16:11:00
11:51 AM,14.0,9.0,80,29.85,2.5,North,5.8,-,0.00,Snow,Light Snow,350,2013-02-01 16:51:00
12:05 PM,14.0,8.6,79,29.78,3.0,NNW,8.1,-,0.00,Snow,Light Snow,330,2013-02-01 17:05:00
12:40 PM,15.8,8.6,73,29.79,6.0,NNW,10.4,-,0.00,,Haze,340,2013-02-01 17:40:00
12:51 PM,14.0,8.1,77,29.86,10.0,NNW,9.2,-,0.00,,Overcast,340,2013-02-01 17:51:00
1:07 PM,14.0,6.8,73,29.79,10.0,North,8.1,-,N/A,,Mostly Cloudy,350,2013-02-01 18:07:00
1:51 PM,15.1,7.0,70,29.87,10.0,NW,10.4,-,N/A,,Mostly Cloudy,320,2013-02-01 18:51:00
2:51 PM,14.0,7.0,74,29.89,6.0,NW,10.4,-,0.00,Snow,Light Snow,310,2013-02-01 19:51:00
3:24 PM,14.0,6.8,73,29.83,10.0,North,9.2,18.4,0.00,,Mostly Cloudy,350,2013-02-01 20:24:00
3:51 PM,14.0,5.0,67,29.91,10.0,NW,10.4,-,0.00,,Mostly Cloudy,310,2013-02-01 20:51:00
4:51 PM,14.0,3.0,62,29.94,10.0,NW,9.2,-,N/A,,Scattered Clouds,310,2013-02-01 21:51:00
5:51 PM,12.9,1.9,62,29.98,10.0,NW,8.1,17.3,N/A,,Mostly Cloudy,320,2013-02-01 22:51:00
6:51 PM,12.0,1.0,61,30.03,10.0,WNW,9.2,17.3,N/A,,Overcast,300,2013-02-01 23:51:00
7:51 PM,10.9,-0.0,61,30.05,10.0,NNW,9.2,18.4,N/A,,Mostly Cloudy,330,2013-02-02 00:51:00
8:51 PM,10.4,1.4,67,29.99,10.0,North,8.1,-,N/A,,Overcast,350,2013-02-02 01:51:00
9:51 PM,10.9,1.9,67,30.08,10.0,Calm,Calm,-,N/A,,Overcast,0,2013-02-02 02:51:00
10:51 PM,10.9,3.0,70,30.10,10.0,Calm,Calm,-,N/A,,Overcast,0,2013-02-02 03:51:00
11:51 PM,10.0,3.9,76,30.13,3.0,NW,8.1,-,0.00,Snow,Light Snow,320,2013-02-02 04:51:00